TIMESTAMP,CO2_1_1_1,H2O_1_1_1,TAU_1_1_1,TAU_SSITC_TEST_1_1_1,H_1_1_1,H_SSITC_TEST_1_1_1,LE_1_1_1,LE_SSITC_TEST_1_1_1,FC_1_1_1,FC_SSITC_TEST_1_1_1,WD_0_0_1,WS_0_0_1,WS_MAX_0_0_1,U_SIGMA_0_0_1,V_SIGMA_0_0_1,W_SIGMA_0_0_1,USTAR_0_0_1,MO_LENGTH_0_0_1,ZL_0_0_1,FETCH_MAX_0_0_1,FETCH_70_0_0_1,FETCH_80_0_0_1,FETCH_90_0_0_1,PA_0_0_1,RH_0_0_1,TA_0_0_1,VPD_0_0_1,T_SONIC_0_0_1,T_SONIC_SIGMA_0_0_1
[yyyymmddHHMMSS],[mmolCO2 mol-1],[mmolH2O mol-1],[kg m-1 s-2],[#],[W m-2],[#],[W m-2],[#],[umolCO2 m-2 s-1],[#],[Decimal degrees],[m s-1],[m s-1],[m s-1],[m s-1],[m s-1],[m s-1],[m],[#],[m],[m],[m],[m],[kPa],[%],[deg C],[hPa],[deg C],[deg C]
20211114003000,420.76551972411124,5.2850313288275101,0.14835148451656621,0,-4.7145902954465253,0,10.327575339453686,1,1.1930346794666082,1,226.34554882058771,1.7158760668731821,4.5259728782630191,0.76971114339772506,0.56334443849376892,0.43081758635513656,0.35261058904192072,770.09844324271103,2.4672170378627543E-002,106.67347461557402,195.03313335703061,233.40484847105986,292.19517345888380,93.125400981770824,92.048275862068962,-1.7837931034482608,0.42528282872725587,-3.1760703557332022,5.5603895618005439E-002
20211114010000,420.81295809931441,5.2244156577997130,0.15442877142125591,0,-8.0784731574216160,0,10.018214205721403,0,1.6516392485602491,0,232.61034484845254,1.7006740896532833,3.8670303436395397,0.69612328896500852,0.57001209586983170,0.41958033881168522,0.35975336676374908,477.26998213639229,3.9809752783845215E-002,110.71505750276532,202.42243587156585,242.24795632676282,303.26569513287177,93.119119225043391,91.140000000000001,-1.8066666666666720,0.47306166805584954,-3.2071280364990002,4.9798530611977566E-002
20211114013000,420.54537481327048,5.1797223410635880,0.25081245973991678,0,0.70278256271016604,2,5.8545540237661120,1,1.7697459884328275,0,228.44727250102869,2.6073555944605080,6.7417952230306550,0.98644865320421526,0.82360375515180795,0.59053763837153805,0.45836019690023377,-11347.898652365049,-1.6743187952282385E-003,102.24035559886947,186.92797792370135,223.70504750294705,280.05217366706160,93.131312760228568,91.010000000000005,-1.9019999999999868,0.47663865612623341,-3.3381309557602208,0.13517230394458726
20211114020000,420.66817828134640,5.1261729323985668,0.17496892598648023,1,-8.1289471868867889,0,8.7967106340411956,0,1.0654040674329852,0,266.63125121212084,1.4969806501278988,4.2263216798688052,0.69716954176930090,0.54604521510462856,0.42532152148627422,0.38274272432402651,571.15173065246927,3.3266116480632706E-002,115.08177925970476,210.40619593772456,251.80247804518191,315.22682254354032,93.117471292534731,91.173333333333332,-2.0690000000000168,0.46224242094496104,-3.5812308383517575,4.4113486157452843E-002
20211114023000,420.82469056846975,5.0451217416489182,6.4400966296531637E-002,0,-4.5034796159446708,0,3.7311651444718472,0,0.50010214826981891,0,274.48480793616409,1.2591142920063463,3.0522925812227384,0.47794568931409265,0.36435478627793327,0.27351060967461965,0.23223677976272888,230.20454419859126,8.2535295148688334E-002,109.85513406418877,200.85022156733382,240.36641735373334,300.91023161017563,93.060529062717023,90.239999999999995,-2.1536666666666520,0.50793060065205342,-3.6129655897352109,4.2066946598153888E-002
20211114030000,421.03495064946532,5.0070260068144998,1.4295976977821428E-002,0,-1.7993433066899158,0,1.5578336492094831,0,6.9422185489306593E-002,2,274.84086755486589,0.80649355332050043,1.9860542413120159,0.41277737677386650,0.27142453694517144,0.18243455263891950,0.10943377388289584,60.264140784833351,0.31527870060966207,82.698312016567328,718.00000000000000,1294.0000000000000,3382.0000000000000,93.016347883246524,89.849999999999994,-2.2040000000000077,0.52626388924771450,-3.6365087187024869,4.9897004851369949E-002
20211114033000,421.44385691289563,5.0163801443138070,1.5312667642209711E-002,1,0.63153883050297399,2,-3.5548794517652018,1,-0.23519315934745111,2,281.56867119858373,0.24725134264313889,0.94927986472690085,0.21010349079691565,0.37089421122864658,9.4254458321139711E-002,0.11328577628703530,-190.41764188328057,-9.9780670593780083E-002,11.555867640513970,52.000000000000000,78.000000000000000,149.00000000000000,92.974813531684021,89.913333333333327,-2.1943333333333612,0.52335431108657926,-3.6166224839952292,4.2275181892828334E-002
20211114040000,422.41532804788312,5.1387210467164000,8.1236900678554498E-003,1,-1.0276897052195313,1,5.8351187537643971,1,1.0055119312989915,1,226.62401588008640,0.61687427997784450,1.3403006289436485,0.21176939805434522,0.33495278080400281,7.6936803371678977E-002,8.2510641753799699E-002,45.214428325977742,0.42021984360871895,84.989405658620484,744.00000000000000,1344.0000000000000,3528.0000000000000,92.980653623046877,92.223333333333329,-2.2106666666666683,0.40301089369905696,-3.6303870510524803,2.3979320006010121E-002
20211114043000,422.04138763418842,5.0865474125789518,5.6673080114094040E-002,1,0.47104926140229531,2,0.26538827718307001,2,-0.35752941125404758,2,281.53750345721858,0.23915868844539498,1.3780478817625799,0.60778902541484769,0.25109429127818472,0.11854803665397540,0.21794065588408162,-1817.6117550204065,-1.0453277465619542E-002,203.80273602070017,372.61640099468349,445.92666443391602,558.24726828828204,92.964865267144091,91.406666666666666,-2.2306666666666501,0.44467448114053582,-3.6183226674397702,4.4662427118332869E-002
20211114050000,421.69450576726115,5.0271180053831142,1.4916243698956538E-002,1,-0.28818195990146606,2,-2.6082590710174123,2,-0.78539676794997360,2,103.60946435198341,0.64874304471057320,1.7472364225846606,0.40196761132181041,0.28426983973570930,9.0825159871364067E-002,0.11183261566809510,401.32597200481899,4.7343061066010085E-002,60.119108089593517,399.00000000000000,668.00000000000000,1532.0000000000000,92.937868230685766,90.056666666666672,-2.1923333333333517,0.51599369662600281,-3.5777936223347524,3.8980179190303339E-002
20211114053000,421.64125224661262,4.8227439123554019,1.3702942369108297E-002,1,-4.2772178368013858,1,8.7505640701115599,0,1.0315251216669004,0,167.23792478055270,0.75319691216376350,2.0956317145197940,0.23487738183596052,0.50511805321515912,0.14112219913350404,0.10717621051868616,23.795150621863449,0.79848202274216451,73.468377733592533,607.00000000000000,1080.0000000000000,2755.0000000000000,92.911224095486105,87.113333333333330,-2.3079999999999927,0.66303251339810121,-3.7430438749524910,0.10315142043980517
20211114060000,422.45181798159479,4.9986875052907838,4.5797864895902325E-002,0,0.41647493349370152,2,7.1273209138762663,0,1.2907229795462078,0,187.66074581049736,1.0392881215057685,2.6824820381893293,0.44965513208749275,0.36336284715409439,0.27070742118248781,0.19583023020335208,-1490.7002714074104,-1.2745687623751211E-002,59.272404837227363,307.00000000000000,480.00000000000000,980.00000000000000,92.903619108289917,92.536666666666662,-2.6403333333333308,0.37464857645511074,-4.0678043416340870,8.5395969137432151E-002
20211114063000,422.73523795848280,5.0644698782910282,2.3499850582331692E-002,0,-1.4476009956272629,0,1.8777116382067283,1,0.67252781929872818,1,182.16745019084959,0.75074560801208001,2.1244581158720819,0.36594395511253830,0.32301898268353946,0.21674717231914931,0.14028453386954329,157.61161715707459,0.12054948957896129,49.176519088971524,368.00000000000000,637.00000000000000,1549.0000000000000,92.862754165725761,94.416666666666671,-2.7409999999999854,0.27818705991340664,-4.1449388284561337,2.1830160443496366E-002
20211114070000,422.95074504137438,5.0803446318439267,2.1717224967143824E-002,1,-2.5751037168760402,1,-1.3637824256746005,2,-6.1310529026644744E-002,2,154.17722017832472,0.87184411451988675,2.2330791953273867,0.44545656570971309,0.34741198443583338,0.22782131179011050,0.13487104505055292,78.720802853492927,0.24135932703024954,65.957539686274018,549.00000000000000,979.00000000000000,2506.0000000000000,92.838604071180555,94.849999999999994,-2.7640000000000100,0.25615813288880079,-4.1685820541381418,3.8425834226101650E-002
20211114073000,422.36924283873810,5.0194110936162888,4.3476648162291721E-002,1,0.64995038715153353,2,8.1618353914503299,1,1.8390210279542698,1,129.35574911880508,0.67164487292925990,2.1491551137444200,0.46095564862879074,0.42054074674851055,0.22412333922503822,0.19080142431387254,-882.97234836900043,-2.1518227649026857E-002,29.390785452386918,148.00000000000000,230.00000000000000,464.00000000000000,92.826409508463556,94.453333333333333,-2.8716666666666697,0.27368788659884502,-4.3046256018744202,3.8397880788287361E-002
20211114080000,421.95613178599319,4.9756212405910230,2.4651081545018237E-002,1,1.2972303730751165,1,12.709700176838682,1,1.7640563189331908,1,357.55929844250670,0.27089932052839777,1.5786281344617272,0.39299781520060501,0.21800003067895418,0.14478225489110480,0.14367905257457644,-188.88263005663981,-0.10059156839515901,8.4893950369682685,39.000000000000000,58.000000000000000,112.00000000000000,92.811280937934029,93.700000000000003,-2.8840000000000146,0.31057430183511942,-4.3045187166001710,4.0815484809809441E-002
20211114083000,422.53463356130021,5.0848650002744771,3.9683486293639866E-002,1,2.4284475664578693,0,1.9713083624429764,1,0.86169080014937216,1,346.01003223703486,0.86601887641397413,2.1494521844408401,0.36171138992967761,0.24005767145348800,0.21268680028467515,0.18231100284517443,-206.12382939134537,-9.2177600504048093E-002,49.946604921732522,209.00000000000000,310.00000000000000,574.00000000000000,92.805808299696182,95.656666666666666,-2.8706666666666933,0.21432803489144930,-4.2963567246330854,4.0369452267838245E-002
20211114090000,423.18682607754778,5.1193935689055436,4.5344345297486502E-002,0,0.64717860763733548,1,1.2391427286806875,1,0.34272660941614147,1,338.22477453757688,1.3409179142016834,2.8402801329819578,0.44593494587031857,0.31450146498050635,0.21839553265715400,0.19488936299666554,-944.86550387708667,-2.0108682052669823E-002,90.338125313999683,447.00000000000000,691.00000000000000,1382.0000000000000,92.808458930772588,96.113333333333330,-2.8433333333333621,0.19218355180758068,-4.2615960523817193,4.2740827683947998E-002
20211114093000,423.66590558259782,5.1757683117231927,0.10972008845563787,0,-0.95101684112950891,0,-0.58527216630656143,2,-0.16129826927725627,2,344.33812465937393,1.6722961851105120,4.0682051895919340,0.66953055027809594,0.49131610286842597,0.34085085306651380,0.30323439570133248,2422.0154491648909,7.8447063607918702E-003,114.03184754277051,208.48658590062243,249.50519510601512,312.35089690921399,92.807069193514224,96.266666666666666,-2.7176666666666733,0.18633446828265562,-4.1199617406315951,4.3090202083291472E-002
20211114100000,422.71504581622122,5.1363912686007165,8.8608305103656665E-002,0,0.87028050065057938,1,0.62386172137259621,0,0.26665878649103725,1,347.43929528526036,1.8903317025339894,4.1229049460301379,0.59626258963943246,0.50140294253729556,0.35028018931612676,0.27246861915602383,-1920.0986696637824,-9.8953248081396685E-003,102.41784460837350,187.25248444029094,224.09339892318400,280.53834356174229,92.809072933376740,95.963333333333338,-2.7776666666666756,0.20057766734239293,-4.2010192938910222,6.6128888220143539E-002
20211114103000,422.63893321109077,5.1265937477401238,0.10653473833809281,0,0.56189946119762924,0,0.58310082831213206,0,0.24898071947969966,0,343.27571061994047,2.1521080728910880,4.9260870473593883,0.76009818063172752,0.54446105182641247,0.37393650522638616,0.29868944708395728,-3918.0497618616291,-4.8493513749994603E-003,104.61465112482024,191.26894738785859,228.90007925247204,286.55573695257357,92.820082821702414,96.489999999999995,-2.8753333333333444,0.17314587301574080,-4.3130596674234312,5.1750632399252268E-002
20211114110000,423.22669391488284,5.1598426594494686,0.11595690621187874,0,0.39656040461392766,2,0.44685787566614971,1,0.22277186441663260,2,335.82182176420412,1.7638249472924323,4.1225240695093133,0.66789219086302565,0.43506931238215341,0.33079664548738763,0.31162564550677418,-6305.4030602103139,-3.0132887332608143E-003,119.37477752863636,218.25516595490444,261.19569050083220,326.98600989887581,92.835369768663199,96.739999999999995,-2.8210000000000264,0.16146482515153993,-4.2542903679741357,4.6123450767819929E-002
20211114113000,423.30661934738021,5.1705501435166363,0.16139252241477706,0,0.62949752923169644,0,1.6754430250366334,1,0.97688408116630465,0,324.86899757644375,2.1537437429490267,4.7899138064653668,0.82112107298103088,0.58303684374008191,0.41241892368102573,0.36763978543917314,-6523.4610254191048,-2.9125643467425070E-003,114.21470842027234,208.82091390518147,249.90530033890843,312.85178118258233,92.859585147786461,96.503333333333330,-2.7566666666666606,0.17401708582549816,-4.1990096477932184,3.9400581650156717E-002
20211114120000,423.20629049884747,5.1725720850207271,0.14720406839644665,0,1.3828273611253199,0,1.3797549792617536,0,0.68021472941340566,0,328.15957633460795,2.0186793833821639,5.2899602784067152,0.78511350534151025,0.59143561325482030,0.39168331467480677,0.35108405826147016,-2586.6493460986376,-7.3454100103120300E-003,114.71909982612895,209.74310226247539,251.00892427239637,314.23338738652916,92.879755322482637,96.406666666666666,-2.7350000000000136,0.17911606213193182,-4.1976332617865637,3.9992083593878978E-002
20211114123000,423.51069739816552,5.1757022292942176,0.14312219822565422,0,1.8884648022183705,0,1.1751212138177567,1,0.73567002663561032,0,319.09576794495177,2.1467359490491273,5.3146324650451655,0.80552507520903016,0.62592847178606414,0.43410006296901388,0.34614463984124477,-1815.5483128073945,-1.0465158027450216E-002,104.46940215663606,191.00338594923551,228.58227003577804,286.15787752588619,92.901155117621528,96.463333333333338,-2.7316666666666833,0.17633508833189696,-4.2074094967312021,3.8780819902126541E-002
20211114130000,423.59552634184763,5.1699208868373647,0.19808559181154212,0,0.44233242629071423,2,2.6257301495430734,1,1.0124216931236043,0,309.03812192162331,2.3160632609196572,6.0983903583588566,0.94917111141166999,0.62579521066464860,0.50440708727454098,0.40718871790685957,-12619.653963293889,-1.5055880339717937E-003,105.50342167224012,192.89390340736972,230.84473658826857,288.99021717555661,92.920774239366324,96.273333333333341,-2.7173333333333289,0.18600633526677712,-4.2012840554978652,3.0986553185550818E-002
20211114133000,422.97536989616748,5.1912798116951446,0.28212122081165447,0,-1.2239007430978153,0,-2.2087022494908259E-003,2,1.6320622884558824,0,305.53511969534094,3.0160795253130517,6.8853322689188330,0.99974382760461855,0.75746560602592417,0.58520091186800616,0.48596860748107684,7754.5711223881963,2.4501677397922323E-003,107.91889180569282,197.31015318600799,236.12985964736677,295.60656409003053,92.941266089192709,96.093333333333334,-2.6336666666666702,0.19620614277338064,-4.1298418782552062,4.6051889804446834E-002
20211114140000,422.09053514636787,5.2484003457809134,0.19522583984263889,0,2.7429707105828816,1,2.1297746170119001,1,0.43801195462748205,1,309.93971128984128,2.7544184465061798,6.3199936236339944,1.0105140029294910,0.73269457444008923,0.52541321383878492,0.40432840069313253,-1993.2272486645516,-9.5322798806457554E-003,101.54101622202779,185.64936249998036,222.17487140368885,278.13657476809175,92.968542520182297,95.980000000000004,-2.4663333333333526,0.20442064992021813,-3.9744504703945154,6.6098861799150588E-002
20211114143000,422.31284533513207,5.3340820483256763,0.17486722300369670,0,2.2227375793305635,1,3.0617446747796757,0,7.0316960270558435E-002,2,314.85915992066793,1.7663841500683484,5.5601831286625076,0.81952274309672213,0.65580288904947737,0.43925194884047414,0.38275758996205417,-2087.1105393098592,-9.1034948279656979E-003,112.15612378974217,205.05716464867874,245.40105375384780,307.21299895143017,92.992497696419889,96.203333333333333,-2.2756666666666661,0.19581070580943277,-3.7905326762684126,7.4368966852761592E-002
20211114150000,422.44638734354896,5.4571049345901912,0.22937743850756528,0,3.2617489043284991,1,3.1016264925948942,1,0.69825946197871824,0,314.68724472869576,2.3101470325043412,6.8466924295267422,0.88545034280794832,0.70212188215356119,0.52744799904648543,0.43859320687300585,-2140.4532958028203,-8.8766244221524428E-003,108.03406091945840,197.52071905727635,236.38185321600108,295.92203013531599,93.021838077907987,95.983333333333334,-1.9320000000000164,0.21248763606036961,-3.4640379079182821,0.13406946658676333
20211114153000,422.14100745726404,5.5813419004223812,0.31669488746625529,0,0.59699216446188741,2,0.92793779520014064,1,0.50937279659915702,0,313.31949295905662,2.7624183043683250,6.7159632422983346,1.0677621701750108,0.88677833816853691,0.62517329347067019,0.51558742538284941,-19002.826739163196,-9.9985124638549854E-004,107.32389345383297,196.22230643381684,234.82798492493129,293.97677142361579,93.051474057508685,95.926666666666662,-1.6143333333333203,0.22059159529614022,-3.1723146413166887,4.3712311754231431E-002
20211114160000,421.83014332822057,5.5802233607965270,0.47502739242356218,0,8.2364647310732195,0,1.5883351268291175,0,0.31024638149745165,2,308.99828927508520,3.0959499784858830,7.6571477165832587,1.2838771528504529,0.98501254753340706,0.75212733389809028,0.63142830654917592,-2530.5074883916782,-7.5083753307032828E-003,108.86318588616530,199.03662393226185,238.19600418385139,298.19313187207939,93.080340791173526,95.493333333333339,-1.5513333333333321,0.24519319368790435,-3.1516367389220932,4.8806618126764539E-002
20211114163000,420.98046427358952,5.5548390833730270,0.50973048138130117,0,20.955729583061828,0,14.021560429015050,0,0.76126296258422543,0,308.72337120892075,3.7666463431636519,9.4597285813587408,1.4696699194892415,1.3442772509043284,0.88526149302617607,0.65439211016816523,-1107.1604194154568,-1.7161018102535997E-002,98.325934894536317,179.77116843572890,215.14017442049223,269.32996891264105,93.087298990234373,93.150000000000006,-1.2743333333333453,0.38035234930550588,-2.9549864298502371,0.11078681610218463
20211114170000,420.65747531065574,5.4860903344087735,0.81440168557446080,0,35.726593911909923,0,32.810766469034903,0,0.55373203507141344,0,308.73119649794091,3.8354309858890536,9.6491687418291043,1.7758253765648289,1.2009496137927829,0.88764736120234955,0.82747653276779287,-1313.1227502971808,-1.4469325122651325E-002,118.37693076880575,216.43078383103284,259.01237105225391,324.25275303136658,93.097585686848973,90.346666666666664,-1.0260000000000105,0.54586219986898643,-2.7845605850219499,0.11146089359493072
20211114173000,420.60532746753148,5.4374629310620533,0.70504551860417641,0,32.942970368580831,0,34.265703878348319,0,1.0830889643721959,0,303.60752307935087,3.4512816955810663,9.0270836141233328,1.5997494535505883,1.1208402289892654,0.84313140467415293,0.76996112469018885,-1147.2531729552707,-1.6561296536715505E-002,116.44309105357608,212.89510806504964,254.78107018456288,318.95566644944404,93.094304853732638,89.376666666666665,-1.0006666666666888,0.60182823249460005,-2.7197535502115784,8.7435290873978930E-002
20211114180000,420.24459575251473,5.4524000772182593,0.64185646835014531,0,40.494283527923322,0,34.497379519994773,0,-0.27012589418392763,2,302.73651775307081,4.3181356795382300,10.898789799623303,1.6635813040146212,1.4605621890461957,0.94624921563780651,0.73482230250312019,-811.24323980736119,-2.3420842316678982E-002,102.28132302095469,187.00287943716228,223.79468548444629,280.16438978306883,93.088458960937501,88.893333333333331,-0.88999999999998636,0.63432902174316330,-2.7114562454223687,0.11438284126175310
20211114183000,420.16266742762423,5.6105607491366074,0.50541528921481138,0,36.880672386583662,0,27.575789698380269,0,1.0619513988906171,0,308.45662649485632,3.3489272730995614,8.8897581214567563,1.5883767510120705,1.0310214452508004,0.76770665370615654,0.65197692107577443,-622.20237413958739,-3.0536688366504791E-002,109.87134328838424,200.87985719883005,240.40188363558843,300.95463118647609,93.095987906467016,91.906666666666666,-0.95366666666666333,0.46008081707099679,-2.7004236314561467,0.11776853108481002
20211114190000,419.80114519394300,5.5434860939011523,0.61634185275756848,0,26.626185388417962,0,68.964105885206607,1,2.4749250681993304,1,312.12098840174735,3.0322475707065335,11.458327496994976,1.6770959156496013,1.2300450264892773,0.79795136803008737,0.71970358141936575,-1159.4292191606523,-1.6387373792213642E-002,115.29134134903633,210.78934227342305,252.26100635207342,315.80084557282021,93.115185495202738,91.789999999999992,-1.0976666666666688,0.46181468821083627,-2.7957517258375333,9.9579049392635066E-002
20211114193000,419.09301302113272,5.0457352282289918,1.0006177786088608,0,55.741268309019411,0,45.628275609067082,0,0.87849841107278137,0,302.29963879313118,3.9920281011596326,10.390567993470890,1.9713809340007908,1.3868495752497181,1.0784796340555958,0.91661053507322110,-1144.1886423550193,-1.6605653383251005E-002,109.93936311748163,201.00421914023190,240.55071311696341,301.14094803640887,93.134352983289943,84.386666666666670,-1.2309999999999945,0.86970634384830936,-3.0842107153998768,0.13991188324979656
20211114200000,418.97023361915234,4.9325347796646195,0.47871040566414075,0,39.844134419790365,0,46.499415510618675,0,0.69035830811383514,0,305.33385986305268,3.4073446131274623,8.2970120627841695,1.4681811237888398,1.0723024398924776,0.78880497806605709,0.63378345657304436,-529.25267945897224,-3.5899676539045057E-002,105.10706393062326,192.16923504387603,229.97749364004918,287.90453191517793,93.162382563802083,83.063333333333333,-1.3206666666666820,0.93722919177994302,-3.1397170995076067,0.12464890851438218
20211114203000,419.02795857280000,5.0402175646723189,0.65484503025170859,0,4.5189641045668445,2,113.91078011147627,1,2.0354541446410979,1,292.37130532223608,3.1723895139982123,9.3452640904846831,1.5655518439257272,1.1686344075352206,0.84761109804500245,0.74104925163365365,-7461.5580482394507,-2.5463850682610500E-003,112.45408874781390,205.60193962308315,246.05301026073997,308.02917113408569,93.196993554405353,85.337666666666664,-1.3893333333333544,0.80729077522235004,-3.0737471901717299,9.8183245631285124E-002
20211114210000,418.77533842742736,4.5392860979266407,0.65740879991269241,0,-7.0569801662729343,0,41.360474527860369,0,1.0834697485140818,0,287.26829179564419,4.6455303724601498,10.521052060058491,1.7020075211050685,1.3061104803491987,0.93555980624643520,0.74218167925631995,4801.4964758719925,3.9570996449704646E-003,104.04131657386971,190.22070897304459,227.64560559376650,284.98528479313387,93.249033847219906,77.061333333333337,-1.4180000000000064,1.2603176764660566,-3.1035549121842223,5.7980122384278854E-002
20211114213000,419.08829867316126,4.6480379959884246,0.41087466216832086,0,-12.365405097719254,1,32.792335859215882,0,1.2692703493989492,1,282.81889375924311,2.8215536570408544,7.8464961827748647,1.1493609713662849,1.0013646560423919,0.70436947301008679,0.58638458607671728,1352.0766178464844,1.4052458085002748E-002,108.13356367132845,197.70264182246984,236.59956830221515,296.19458358824409,93.306334652417988,79.980999999999995,-1.5933333333333621,1.0858074772524446,-3.1803912111382147,7.8661752962288403E-002
20211114220000,419.44582891055990,4.7570387511514793,0.45976977395531937,0,-0.47701773854008717,2,15.349061610482732,0,0.81402189130303559,0,286.37534679472299,3.0566442314470588,7.7192814567705614,1.3904371649547174,0.93099083583331088,0.69969449707411102,0.61979800383362682,41400.078792148808,4.5893632462369122E-004,113.63922721522106,207.76875072203106,248.64612973490404,311.27544900498827,93.341640707682302,83.986666666666665,-1.9366666666666674,0.84683733734236455,-3.4972608006794417,0.11829608172639818
20211114223000,419.64836441079262,4.8772468374194036,0.37166038911756594,0,-4.0472721305909447,0,7.6019935997912960,0,0.67873140778239449,0,279.95067459051438,3.0528160347350446,8.6683306486234031,1.2703640705929495,0.87472708813492739,0.67507928181578492,0.55701893614392395,3542.3197132627070,5.3637168685995778E-003,107.36606679771621,196.29941275693358,234.92026150047229,294.09229074625637,93.355989123914938,87.400000000000006,-2.1360000000000241,0.65658735159247106,-3.6466753277248358,3.9491719193895027E-002